NIMBUS 2 DEB, 28613

Orbit data source: Space-Track

NIMBUS 2 DEB, 28613 is space debris in SSO originally from a launch on Sun, 15 May 1966 UTC launched from the Air Force Western Test Range (AFWTR). Debris objects in space refer to the collection of defunct objects orbiting the Earth. Examples of debris include non-operational satellites, rocket bodies, and fragments generated from explosions, collisions, or faulty payload assembly.

Loading next visibility...
Identifier
28613, 1966-040AC
Orbit
SSO
Country
Flag of USUS
Related business
Manufacturer
Unknown
Mission
Spacecraft
Bus & Motor
Unknown
Mass
Unknown
Launch date (UTC)
1966-05-15 (60 years ago)
Launch vehicle
Unknown
Launch site
Air Force Western Test Range (AFWTR)
Object type
Payload
Rocket body
Debris
Shape & HBR
Unknown shape, 0.1 m
Radar Cross Section
Small (<0.1 m²)

Expand to show TLE details & history
Last TLE update: 6 days ago

TLE from 6 days ago
0 NIMBUS 2 DEB
1 28613U 66040AC  26167.68541470  .00002210  00000-0  24322-2 0  9993
2 28613 100.3712 329.5579 0045464 193.7543 182.7373 13.72973231643306
Epoch: 2026-06-16T16:26Z
TLE epoch observation values (Epoch: 2026-06-16T16:26:59.830Z)
Latitude
16.1739°
Longitude
174.82772°
Altitude
1,024.517 km
Speed
7.324 km/s
True Right ascension
21h 46m 07s
True Declination
16° 05' 08"
Sunlit
Object was in daylight at epoch
Visualization orbit readout
Latitude
Unknown
Longitude
Unknown
Altitude
Unknown
Speed
Unknown
Apparent Right ascension
Unknown
Apparent Declination
Unknown
Sunlit
N/A
Visualization observer readout
Local Sidereal Time
00:50:10
Azimuth
Unknown
Elevation
Unknown
Doppler factor
Unknown
Orbital elements
Apogee altitude
1,019.704 km
Perigee altitude
952.741 km
Semi-major axis
7,364.36 km
Eccentricity
0.00455
Inclination
100.3712°
RAAN
329.5579°
Arg. of periapsis
193.7543°
True anomaly
182.71256°
Mean anomaly
182.7373°
Eccentric anomaly
182.72492°
Mean motion
3.43432 °/min
Orbital period
104.82 mins
BSTAR
0.0024322
Loading maneuver chart data...
Computing Atmospheric mass density...
Loading historical data...
Loading historical data...
Loading historical data...
Loading historical data...
Loading historical data...
Loading historical data...
Loading historical data...

Documentation

Showing up to 5 results
|